This is the latest recevied weather packets stored in our database for station/object DO0SOB-11. If no packets are shown the sender has not sent any weather packets the latest 10 day(s).
| Time | Temp. | Humidity | Pressure | Rain* | Wind** | Luminosity | Snow |
|---|---|---|---|---|---|---|---|
| 1787598620 | 14.44° C | 100% | 980.1 hPa | - | - | - | - |
| 1787597600 | 15° C | 100% | 979.9 hPa | - | - | - | - |
| 1787596580 | 15.56° C | 100% | 980 hPa | - | - | - | - |
| 1787595560 | 16.11° C | 100% | 980.1 hPa | - | - | - | - |
| 1787594540 | 16.67° C | 100% | 980 hPa | - | - | - | - |
| 1787593519 | 17.22° C | 100% | 980.2 hPa | - | - | - | - |
| 1787592499 | 18.33° C | 100% | 980.2 hPa | - | - | - | - |
| 1787591479 | 18.33° C | 100% | 980.2 hPa | - | - | - | - |
| 1787590459 | 18.33° C | 100% | 980.4 hPa | - | - | - | - |
| 1787589439 | 17.78° C | 100% | 980.5 hPa | - | - | - | - |
| 1787588419 | 18.33° C | 100% | 980.8 hPa | - | - | - | - |
| 1787587399 | 18.89° C | 100% | 981 hPa | - | - | - | - |
| 1787586379 | 18.33° C | 100% | 981.1 hPa | - | - | - | - |
| 1787585359 | 18.89° C | 100% | 981.3 hPa | - | - | - | - |
| 1787584339 | 18.89° C | 100% | 981.4 hPa | - | - | - | - |
| 1787583318 | 18.89° C | 100% | 981.7 hPa | - | - | - | - |
| 1787582298 | 18.89° C | 100% | 981.8 hPa | - | - | - | - |
| 1787581278 | 20° C | 100% | 982.1 hPa | - | - | - | - |
| 1787580258 | 21.11° C | 100% | 982.2 hPa | - | - | - | - |
| 1787579238 | 21.11° C | 99% | 982.4 hPa | - | - | - | - |
| 1787578218 | 21.11° C | 100% | 982.5 hPa | - | - | - | - |
| 1787577198 | 20.56° C | 100% | 982.7 hPa | - | - | - | - |
| 1787576178 | 21.67° C | 95% | 982.9 hPa | - | - | - | - |
| 1787575157 | 20° C | 100% | 983 hPa | - | - | - | - |
| 1787574821 | 21.67° C | 100% | 983.1 hPa | - | - | - | - |
* Rain since midnight (hover to see other rain measurements)
** Current wind speed in m/s (hover to see current wind gust speed)